Regional Weather Roundup
Issued by NWS

Home | Current Version | Previous Version | Text Only | Print | Product List | Glossary Off
Versions: 1 2 3 4 5 6 7 8 9 10 11 12 13 14 15 16 17 18 19 20 21 22 23 24 25 26 27 28 29 30 31 32 33 34 35 36 37 38 39 40 41 42 43 44 45 46 47 48 49 50

000
ASUS43 KLSX 302307
RWRMO

WEATHER SUMMARY FOR MISSOURI
NATIONAL WEATHER SERVICE SPRINGFIELD MO
500 PM CST FRI JAN 30 2015

NOTE: "FAIR" INDICATES FEW OR NO CLOUDS BELOW 12,000 FEET WITH NO
       SIGNIFICANT WEATHER AND/OR OBSTRUCTIONS TO VISIBILITY.
       CURRENT SKY AND/OR WEATHER CONDITIONS ARE NOT AVAILABLE FOR
       CHILLICOTHE AND FARMINGTON.

MOZ001>031-035>038-043-044-053-054-310000-
...NORTHERN AND WESTERN MISSOURI...

CITY           SKY/WX    TMP DP  RH WIND       PRES   REMARKS
KANSAS CTY INT CLOUDY    37  19  48 SE5       30.41F
KANSAS C DTWN  CLOUDY    40  17  39 E7        30.41F
LEE`S SUMMIT   MOCLDY    39  18  42 S5        30.42F
ST JOSEPH      MOCLDY    36  20  52 S7        30.41F
CHILLICOTHE      N/A     35  17  47 S3        30.44F
KIRKSVILLE     PTCLDY    33  18  53 S3        30.43F

$$
MOZ066>068-077>081-088>096-101>105-310000-
...SOUTHWEST MISSOURI...

CITY           SKY/WX    TMP DP  RH WIND       PRES   REMARKS
SPRINGFIELD    PTCLDY    46  13  26 CALM      30.40F
JOPLIN         MOCLDY    45  23  42 CALM      30.42F

$$
MOZ032>034-039>042-045>050-055>058-069>072-310000-
...CENTRAL MISSOURI...

CITY           SKY/WX    TMP DP  RH WIND       PRES   REMARKS
COLUMBIA       MOCLDY    36  18  48 W5        30.43F
JEFFERSON CITY MOCLDY    39  15  37 CALM      30.45F
ROLLA          PTCLDY    38  18  44 CALM      30.41F
SEDALIA        MOCLDY    38  19  46 CALM      30.44F
WHITEMAN AFB   CLOUDY    37  19  49 E1        30.43F
WARRENSBURG    MOCLDY    36  18  48 CALM      30.44F
OSAGE BEACH    MOCLDY    41  16  36 SW5       30.44F

$$
MOZ051-052-059>065-310000-
...EAST CENTRAL MISSOURI...

CITY           SKY/WX    TMP DP  RH WIND       PRES   REMARKS
ST LOUIS INTL  MOCLDY    37  18  46 NW5       30.46F
SPIRIT OF STL  PTCLDY    34  20  56 CALM      30.45F
ST CHARLES     CLEAR     36  18  48 CALM      30.47S

$$
MOZ072>076-082>087-097>100-106>115-310000-
...SOUTH CENTRAL AND SOUTHEAST MISSOURI...

CITY           SKY/WX    TMP DP  RH WIND       PRES   REMARKS
CAPE GIRARDEAU CLEAR     41  21  44 NE3       30.46F
FARMINGTON     PTCLDY    39  18  41 E3        30.46F
POPLAR BLUFF   PTCLDY    40  26  57 SE5       30.46S
WEST PLAINS    CLOUDY    46  14  27 E3        30.42F

$$



USA.gov is the U.S. government's official web portal to all federal, state and local government web resources and services.